Home   Weather   Sunrise Manor   Past weeks

Flag for USA Past Weather in Sunrise Manor, Nevada, USA — Yesterday and Last 2 Weeks

Now
44 °F

Clear.


Feels Like: 37 °F
Forecast: 45 / 54 °F
Wind: 15 mph from Northeast

Location: Nellis Air Force Base

Current Time: Jan 20, 2017 at 2:04:56 am

Latest Report: Jan 20, 2017 at 12:58 am


Visibility: 10 mi

Pressure: 29.69 "Hg (27.75 "Hg at 555m altitude)

Humidity: 100%

Dew Point: 44 °F

Location of Sunrise ManorLocation

Past Weather in Sunrise Manor — Graph

°F

Sunrise Manor Temperature Yesterday

Maximum temperature yesterday: 57 °F (at 2:58 pm)
Minimum temperature yesterday: 44 °F (at 10:58 pm)
Average temperature yesterday: 51 °F

High & Low Weather Summary for the Past Weeks

 TemperatureHumidityPressure
High67 °F (Jan 9, 1:58 pm)100% (Jan 12, 9:58 pm)30.39 "Hg (Jan 12, 9:58 pm)
Low30 °F (Jan 18, 6:58 am)19% (Jan 6, 12:58 pm)29.57 "Hg (Jan 5, 2:58 pm)
Average50 °F53%30.01 "Hg
* Reported Jan 5 12:58 am — Jan 20 12:58 am, Sunrise Manor, Weather by CustomWeather, © 2017

Note: Actual official high and low records may vary slightly from our data, if they occured in-between our weather recording intervals... More about our weather records

Advertising

Sunrise Manor Weather History for the Previous 24 Hours

Scroll right to see more
 ConditionsComfort  
Time TempWeatherWind HumidityBarometerVisibility
12:58 am
Fri, Jan 20
44 °FClear.15 mph100%29.69 "Hg10 mi
11:58 pm
Thu, Jan 19
44 °FClear.12 mph100%29.71 "Hg10 mi
10:58 pm44 °FClear.10 mph100%29.74 "Hg10 mi
9:58 pm45 °FClear.10 mph93%29.75 "Hg10 mi
8:58 pm47 °FPassing clouds.14 mph85%29.74 "Hg10 mi
7:58 pm48 °FPassing clouds.16 mph83%29.75 "Hg10 mi
6:58 pm50 °FMostly cloudy.12 mph76%29.75 "Hg10 mi
5:58 pm52 °FPassing clouds.No wind63%29.73 "Hg10 mi
4:58 pm54 °FPassing clouds.6 mph58%29.72 "Hg10 mi
3:58 pm55 °FPartly sunny.No wind61%29.71 "Hg10 mi
2:58 pm57 °FPartly sunny.17 mph48%29.71 "Hg10 mi
1:58 pm56 °FBroken clouds.21 mph50%29.71 "Hg10 mi
12:58 pm52 °FPartly sunny.16 mph64%29.74 "Hg10 mi
11:58 am52 °FPartly sunny.15 mph68%29.77 "Hg10 mi
11:10 am50 °FPassing clouds.14 mph82%29.81 "Hg10 mi
10:58 am52 °FLight rain. Scattered clouds.16 mph67%29.80 "Hg10 mi
9:58 am52 °FScattered clouds.17 mph70%29.82 "Hg10 mi
8:58 am51 °FBroken clouds.13 mph66%29.82 "Hg10 mi
7:58 am50 °FSunny.17 mph67%29.84 "Hg10 mi
6:58 am51 °FPassing clouds.17 mph68%29.83 "Hg10 mi
5:58 am53 °FOvercast.17 mph59%29.81 "Hg10 mi
5:03 am52 °FOvercast.12 mph62%29.83 "Hg10 mi
4:58 am52 °FPassing clouds.8 mph60%29.80 "Hg10 mi
3:58 am52 °FOvercast.13 mph60%29.82 "Hg10 mi
2:58 am51 °FOvercast.6 mph59%29.85 "Hg10 mi
Weather by CustomWeather, © 2017

See weather overviewHow to use our weather pages